TimeEDT,TemperatureF,Dew PointF,Humidity,Sea Level PressureIn,VisibilityMPH,Wind Direction,Wind SpeedMPH,Gust SpeedMPH,PrecipitationIn,Events,Conditions,WindDirDegrees,DateUTC
12:15 AM,39.6,32.4,75,30.25,10.0,North,9.2,16.1,N/A,,Clear,10,2013-05-24 04:15:00
12:34 AM,39.4,31.6,74,30.25,10.0,NNE,9.2,18.4,N/A,,Clear,20,2013-05-24 04:34:00
12:55 AM,39.2,30.2,70,30.26,10.0,NNE,10.4,18.4,N/A,,Clear,20,2013-05-24 04:55:00
1:15 AM,39.2,30.0,70,30.26,10.0,NNE,12.7,18.4,N/A,,Clear,20,2013-05-24 05:15:00
1:34 AM,38.8,29.8,70,30.27,10.0,North,8.1,-,N/A,,Clear,10,2013-05-24 05:34:00
1:55 AM,38.5,30.2,72,30.27,10.0,North,9.2,-,N/A,,Clear,360,2013-05-24 05:55:00
2:15 AM,38.1,30.6,74,30.27,10.0,North,8.1,-,N/A,,Scattered Clouds,10,2013-05-24 06:15:00
2:35 AM,38.5,31.1,75,30.27,10.0,North,8.1,-,N/A,,Mostly Cloudy,360,2013-05-24 06:35:00
2:55 AM,38.7,30.2,72,30.27,10.0,North,8.1,-,N/A,,Overcast,360,2013-05-24 06:55:00
3:15 AM,38.7,29.7,70,30.27,10.0,North,11.5,17.3,N/A,,Overcast,360,2013-05-24 07:15:00
3:35 AM,38.5,29.1,69,30.28,10.0,North,9.2,17.3,N/A,,Overcast,360,2013-05-24 07:35:00
3:55 AM,38.3,28.9,69,30.28,10.0,North,9.2,17.3,N/A,,Overcast,10,2013-05-24 07:55:00
4:14 AM,38.3,28.2,67,30.29,10.0,North,6.9,17.3,N/A,,Overcast,10,2013-05-24 08:14:00
4:35 AM,37.8,27.7,67,30.30,10.0,North,11.5,17.3,N/A,,Overcast,360,2013-05-24 08:35:00
4:55 AM,37.8,27.3,66,30.30,10.0,North,10.4,16.1,N/A,,Overcast,10,2013-05-24 08:55:00
5:14 AM,37.6,27.1,66,30.30,10.0,North,10.4,-,N/A,,Overcast,10,2013-05-24 09:14:00
5:35 AM,37.6,27.1,66,30.31,10.0,North,10.4,19.6,N/A,,Overcast,360,2013-05-24 09:35:00
5:55 AM,37.8,27.5,67,30.31,10.0,North,10.4,16.1,N/A,,Overcast,360,2013-05-24 09:55:00
6:15 AM,37.8,27.3,66,30.32,10.0,North,6.9,18.4,N/A,,Overcast,10,2013-05-24 10:15:00
6:35 AM,37.8,27.3,66,30.33,10.0,North,9.2,16.1,N/A,,Overcast,350,2013-05-24 10:35:00
6:55 AM,37.9,26.8,64,30.34,10.0,North,8.1,-,N/A,,Overcast,10,2013-05-24 10:55:00
7:15 AM,37.8,27.5,67,30.35,10.0,North,9.2,16.1,N/A,,Overcast,360,2013-05-24 11:15:00
7:35 AM,37.8,27.3,66,30.35,10.0,North,12.7,18.4,N/A,,Mostly Cloudy,350,2013-05-24 11:35:00
7:55 AM,38.5,28.0,66,30.36,10.0,North,10.4,-,N/A,,Overcast,10,2013-05-24 11:55:00
8:15 AM,39.4,28.6,65,30.37,10.0,North,12.7,16.1,N/A,,Mostly Cloudy,10,2013-05-24 12:15:00
8:35 AM,39.9,27.0,60,30.37,10.0,North,10.4,17.3,N/A,,Scattered Clouds,10,2013-05-24 12:35:00
8:55 AM,40.1,27.0,59,30.38,10.0,North,11.5,16.1,N/A,,Clear,10,2013-05-24 12:55:00
9:15 AM,41.4,28.9,61,30.38,10.0,North,5.8,-,N/A,,Clear,10,2013-05-24 13:15:00
9:34 AM,41.0,27.3,58,30.38,10.0,North,11.5,-,N/A,,Clear,10,2013-05-24 13:34:00
9:55 AM,41.7,28.4,59,30.39,10.0,North,8.1,-,N/A,,Clear,10,2013-05-24 13:55:00
10:15 AM,41.9,28.9,60,30.40,10.0,North,8.1,-,N/A,,Clear,10,2013-05-24 14:15:00
10:34 AM,42.3,29.5,61,30.40,10.0,North,8.1,-,N/A,,Clear,360,2013-05-24 14:34:00
10:55 AM,41.9,29.7,62,30.40,10.0,North,9.2,-,N/A,,Clear,360,2013-05-24 14:55:00
11:15 AM,42.3,30.2,62,30.39,10.0,North,8.1,-,N/A,,Clear,350,2013-05-24 15:15:00
11:35 AM,42.6,30.6,62,30.39,10.0,NNW,6.9,-,N/A,,Clear,340,2013-05-24 15:35:00
11:55 AM,42.8,30.6,62,30.39,10.0,North,8.1,-,N/A,,Clear,350,2013-05-24 15:55:00
12:14 PM,43.2,30.0,60,30.39,10.0,North,9.2,-,N/A,,Clear,360,2013-05-24 16:14:00
12:35 PM,43.7,30.2,59,30.40,10.0,NNW,6.9,-,N/A,,Clear,340,2013-05-24 16:35:00
12:55 PM,44.4,31.5,60,30.40,10.0,NNW,8.1,16.1,N/A,,Clear,340,2013-05-24 16:55:00
1:15 PM,44.8,31.1,59,30.39,10.0,North,9.2,-,N/A,,Clear,350,2013-05-24 17:15:00
1:35 PM,46.0,31.8,58,30.39,10.0,North,8.1,-,N/A,,Clear,350,2013-05-24 17:35:00
1:55 PM,46.0,31.1,56,30.38,10.0,North,9.2,-,N/A,,Clear,350,2013-05-24 17:55:00
2:15 PM,46.6,29.5,51,30.38,10.0,North,10.4,-,N/A,,Clear,350,2013-05-24 18:15:00
2:35 PM,47.7,31.3,53,30.39,10.0,North,8.1,-,N/A,,Clear,350,2013-05-24 18:35:00
2:54 PM,48.4,31.5,52,30.38,10.0,NNW,8.1,-,N/A,,Clear,340,2013-05-24 18:54:00
3:15 PM,49.3,31.8,51,30.38,10.0,North,9.2,-,N/A,,Clear,350,2013-05-24 19:15:00
3:34 PM,49.5,32.2,51,30.38,10.0,North,8.1,-,N/A,,Clear,360,2013-05-24 19:34:00
3:55 PM,50.4,32.4,50,30.37,10.0,North,8.1,-,N/A,,Clear,350,2013-05-24 19:55:00
4:15 PM,50.7,32.4,49,30.36,10.0,North,6.9,-,N/A,,Clear,350,2013-05-24 20:15:00
4:35 PM,51.1,31.6,47,30.36,10.0,North,6.9,-,N/A,,Clear,350,2013-05-24 20:35:00
4:55 PM,51.6,31.1,45,30.35,10.0,North,9.2,-,N/A,,Clear,350,2013-05-24 20:55:00
5:15 PM,52.0,31.3,45,30.35,10.0,North,6.9,-,N/A,,Clear,350,2013-05-24 21:15:00
5:35 PM,52.3,30.9,44,30.34,10.0,North,9.2,-,N/A,,Clear,350,2013-05-24 21:35:00
5:54 PM,52.9,30.9,43,30.33,10.0,NNW,9.2,-,N/A,,Clear,330,2013-05-24 21:54:00
6:15 PM,53.1,31.8,44,30.33,10.0,NW,9.2,-,N/A,,Clear,320,2013-05-24 22:15:00
6:35 PM,52.7,30.4,42,30.33,10.0,NNW,8.1,17.3,N/A,,Clear,330,2013-05-24 22:35:00
6:54 PM,52.5,31.1,44,30.33,10.0,NW,9.2,-,N/A,,Clear,320,2013-05-24 22:54:00
7:15 PM,53.4,32.0,44,30.32,10.0,NNW,8.1,-,N/A,,Clear,340,2013-05-24 23:15:00
7:35 PM,53.6,31.8,44,30.32,10.0,WNW,3.5,-,N/A,,Clear,300,2013-05-24 23:35:00
7:55 PM,53.1,31.8,44,30.32,10.0,NW,4.6,-,N/A,,Clear,320,2013-05-24 23:55:00
8:15 PM,52.2,32.0,46,30.32,10.0,NNW,4.6,-,N/A,,Clear,330,2013-05-25 00:15:00
8:35 PM,51.1,33.1,50,30.32,10.0,NNW,4.6,-,N/A,,Clear,330,2013-05-25 00:35:00
8:55 PM,49.3,34.3,56,30.32,10.0,NW,4.6,-,N/A,,Clear,310,2013-05-25 00:55:00
9:15 PM,48.4,32.9,55,30.32,10.0,NW,3.5,-,N/A,,Clear,320,2013-05-25 01:15:00
9:34 PM,47.1,33.8,60,30.32,10.0,NW,5.8,-,N/A,,Clear,320,2013-05-25 01:34:00
9:55 PM,46.2,34.7,64,30.33,10.0,NW,5.8,-,N/A,,Clear,310,2013-05-25 01:55:00
10:15 PM,45.9,35.1,66,30.33,10.0,NW,6.9,-,N/A,,Clear,310,2013-05-25 02:15:00
10:34 PM,45.5,34.9,66,30.35,10.0,NW,8.1,-,N/A,,Clear,320,2013-05-25 02:34:00
10:55 PM,44.8,32.9,63,30.35,10.0,NW,6.9,-,N/A,,Clear,310,2013-05-25 02:55:00
11:15 PM,43.7,33.6,68,30.36,10.0,NW,4.6,-,N/A,,Clear,310,2013-05-25 03:15:00
11:35 PM,42.8,34.0,71,30.36,10.0,WNW,4.6,-,N/A,,Clear,300,2013-05-25 03:35:00
11:55 PM,41.9,34.5,75,30.36,10.0,West,3.5,-,N/A,,Clear,280,2013-05-25 03:55:00